Regional Weather Roundup
Issued by NWS State College, PA

Current Version |  Previous Version |  Text Only |  Print | Product List |  Glossary On
Versions: 1 2 3 4 5 6 7 8 9 10 11 12 13 14 15 16 17 18 19 20 21 22 23 24 25 26 27 28 29 30 31 32 33 34 35 36 37 38 39 40 41 42 43 44 45 46 47 48 49 50
937
ASUS41 KCTP 141310
RWRCTP

REGIONAL WEATHER ROUNDUP
NATIONAL WEATHER SERVICE STATE COLLEGE PA
900 AM EDT FRI JUN 14 2024

Note: "fair" indicates few or no clouds below 12,000 feet with no
significant weather and/or obstructions to visibility.

* = STATION THAT DOES NOT REPORT PRECIPITATION /E.G. RAIN...SNOW...ETC/
    THUNDER OR FOG.

PAZ002>004-007>009-013>016-020>023-029>032-141400-
WESTERN PENNSYLVANIA

CITY           SKY/WX    TMP DP  RH WIND       PRES   REMARKS
ERIE           MOSUNNY   73  53  49 CALM      29.92R
MEADVILLE      CLOUDY    69  62  78 N5        29.95R
FRANKLIN       PTSUNNY   72  61  68 CALM      29.95S
NEW CASTLE     CLOUDY    73  62  68 SW3       29.93S
BEAVER COUNTY  CLOUDY    74  61  64 W5        29.94S
BUTLER         CLOUDY    71  63  75 SW3       29.95S
PITTSBURGH INT CLOUDY    73  60  63 W3        29.93F
PITTSBURGH     CLOUDY    73  60  63 S5        29.94S
INDIANA*       SUNNY     72  61  68 W8        29.99S
LATROBE        PTSUNNY   73  59  60 SW10      29.96R
CONNELLSVILLE  PTSUNNY   71  60  66 SW7       29.97S
WASHINGTON CO* CLOUDY    71  62  73 S6        29.98S
$$

PAZ004>006-010>012-017>019-024>028-033>037-041-042-045-046-049>053-141400-
CENTRAL PENNSYLVANIA

CITY           SKY/WX    TMP DP  RH WIND       PRES   REMARKS
BRADFORD       PTSUNNY   70  63  78 NW3       29.96R
ST MARYS       PTSUNNY   70  59  68 W6        29.98S
DUBOIS         PTSUNNY   71  58  63 W8        29.95S
CLEARFIELD     PTSUNNY   67  59  75 S3        29.95S
JOHNSTOWN      PTSUNNY   68  56  65 W6        29.99S
SOMERSET       PTSUNNY   68  55  64 SW9       30.01R
ALTOONA        PTSUNNY   74  58  57 SW5       29.96R
STATE COLLEGE  SUNNY     66  57  72 CALM      29.93S
REEDSVILLE     PTSUNNY   68  61  77 CALM      29.92S
WELLSBORO      PTSUNNY   68  59  73 W5        29.94S
WILLIAMSPORT   CLOUDY    67  61  81 CALM      29.90R
SELINSGROVE    CLOUDY    73  65  75 CALM      29.90S
FT INDIANTOWN  PTSUNNY   76  68  76 S3        29.89S
CAPITAL CITY   MOSUNNY   78  66  66 CALM      29.91R
HARRISBURG     MOSUNNY   76  68  76 CALM      29.90R
YORK           MOSUNNY   78  65  63 W5        29.92R
$$

PAZ038>040-043-044-047-048-054-055-060>062-067>071-141400-
EASTERN PENNSYLVANIA

CITY           SKY/WX    TMP DP  RH WIND       PRES   REMARKS
TOWANDA        MOSUNNY   72  64  78 SW5       29.93R
SCRANTON       CLOUDY    72  66  81 SW5       29.92R
MOUNT POCONO   PTSUNNY   73  61  65 W12       29.95R
HAZLETON       PTSUNNY   73  63  68 CALM      29.97S
LEHIGHTON      PTSUNNY   75  66  73 CALM      29.91S
ALLENTOWN      MOSUNNY   76  66  71 SW5       29.90
QN CITY/ALNTWN   N/A     77  68  73 SW7       29.91S
QUAKERTOWN*    MOSUNNY   75  70  83 VRB6      29.92R
PERKASIE*      MOSUNNY   75  70  83 VRB7      29.93R
DOYLESTOWN     MOSUNNY   76  67  73 SW6       29.91S
READING        MOSUNNY   79  67  66 W3        29.89S
LANCASTER      MOSUNNY   77  68  73 W6        29.91R
COATESVILLE    MOSUNNY   77  75  94 VRB5      29.94R
WEST CHESTER   SUNNY     77  66  69 SW6       29.93R
POTTSTOWN      MOSUNNY   76  67  73 VRB3      29.93R
BLUE BELL      MOSUNNY   78  67  70 SW9       29.92S
NORTH PHILA    MOSUNNY   79  66  64 SW10G18   29.92S
PHILADELPHIA   MOSUNNY   78  67  68 SW14      29.91S
$$